Notices

What's New in latest Release from April 7th, 2021:

- Updated Glossary, including Speed of Maximum Gust, and Total Hourly Precipitation

- Updated national and regional climate services offices contacts and prices information

- Addition of station inventory lists for 1981-2010, 1971-2000, and 1961-1990 Normals.

If you haven't already, please take our survey and provide feedback about our website: https://eccc.sondage-survey.ca/f/LanguageSelection.aspx?s=442ca660-fcf1-47c0-95a9-59707d6fd709

Hourly Data Report for October 15, 2019

CARBERRY CS
MANITOBA
Current Station Operator: ECCC - MSC

49°54'20.900" N
99°21'26.800" W
383.50 m
5010547
71170
WZE

Download Data

Hourly Data (October 2019)
Hourly Data Report for October 15, 2019
TIME
LST
Temp Definition
°C
Dew Point Definition
°C
Rel Hum Definition
%
Precip. Amount Definition
mm

Wind Dir Definition
10's deg

Wind Spd Definition
km/h
Visibility Definition
km
Stn Press Definition
kPa
Hmdx Definition


Wind Chill Definition


Weather Definition


00:00 1.2 1.1 100 0.0 3 9   96.64     LegendNANA
01:00 0.9 0.9 100 0.0 2 14   96.65     LegendNANA
02:00 0.7 0.7 100 0.0 1 12   96.70     LegendNANA
03:00 0.8 0.8 100 0.0 36 11   96.74     LegendNANA
04:00 0.7 0.7 100 0.0 35 11   96.82     LegendNANA
05:00 0.7 0.7 100 0.0 35 11   96.90     LegendNANA
06:00 0.6 0.5 100 0.0 35 11   96.98     LegendNANA
07:00 0.7 0.7 100 0.0 34 5   97.05     LegendNANA
08:00 1.3 1.3 100 0.0 34 9   97.12     LegendNANA
09:00 1.6 1.6 100 0.0 31 8   97.22     LegendNANA
10:00 2.3 1.6 95 0.0 36 5   97.27     LegendNANA
11:00 3.4 1.2 86 0.0 32 8   97.33     LegendNANA
12:00 3.9 0.2 77 0.0 32 13   97.37     LegendNANA
13:00 4.1 0.5 77 0.0 32 15   97.38     LegendNANA
14:00 3.7 1.2 83 0.0 34 12   LegendMM     LegendNANA
15:00 3.5 3.1 97 0.0 35 6   97.47     LegendNANA
16:00 3.7 0.8 82 0.0 2 7   97.48     LegendNANA
17:00 2.9 0.3 83 0.0 1 7   97.54     LegendNANA
18:00 2.2 0.3 87 0.0 1 6   97.59     LegendNANA
19:00 1.6 0.9 95 0.0 32 6   97.61     LegendNANA
20:00 2.1 0.1 87 0.0 33 8   97.61     LegendNANA
21:00 1.1 0.9 99 0.0 35 2   97.62     LegendNANA
22:00 0.8 0.7 100 0.0 29 3   97.63     LegendNANA
23:00 0.7 0.7 100 0.0 4 2   97.60     LegendNANA

Notes on Data Quality.

Legend

  • E = Estimated
  • M = Missing
  • NA = Not Available*
  • [empty] = Indicates an unobserved value
Date modified: